Location: Mesa Vista Observatory
(35.5777°N, 105.6987°W)
Time: 06:16:06
(UTC-06:00)

Vanguard 2 - Visible Passes

Search period start: 26 September 2020 00:00
Search period end: 06 October 2020 00:00
Orbit: 554 x 2937 km, 32.9° (Epoch: 25 September)

Date Brightness Start Highest point End Pass type
(mag) Time Alt. Az. Time Alt. Az. Time Alt. Az.
26 Sep 10.5 03:58:14 12° SSE 03:58:14 12° SSE 04:01:04 10° SE visible
26 Sep 9.0 06:01:09 10° SW 06:07:18 31° SSE 06:11:36 10° E visible
27 Sep 10.1 04:15:20 18° SSE 04:16:16 19° SSE 04:20:44 10° ESE visible
27 Sep 8.6 06:18:39 10° SW 06:25:12 41° SSE 06:29:37 10° E visible
28 Sep 9.7 04:32:22 24° S 04:34:16 26° SSE 04:39:23 10° ESE visible
29 Sep 9.3 04:49:22 27° SSW 04:52:14 34° SSE 04:57:39 10° E visible
30 Sep 10.7 03:04:55 15° ESE 03:04:55 15° ESE 03:06:32 10° ESE visible
30 Sep 9.0 05:06:19 28° SW 05:10:12 44° SSE 05:15:42 10° E visible
01 Oct 10.2 03:21:49 23° SE 03:21:49 23° SE 03:25:13 10° E visible
01 Oct 8.7 05:23:14 25° SW 05:28:07 53° SSE 05:33:38 10° E visible
02 Oct 9.8 03:38:41 33° SE 03:38:41 33° SE 03:43:32 10° E visible
02 Oct 8.4 05:40:06 21° WSW 05:46:02 62° S 05:51:30 10° E visible
03 Oct 9.4 03:55:31 45° SSE 03:55:31 45° SSE 04:01:38 10° E visible
03 Oct 8.3 05:56:55 16° WSW 06:03:57 69° S 06:09:21 10° E visible
04 Oct 9.1 04:12:20 55° S 04:12:36 55° SSE 04:19:36 10° E visible
04 Oct 8.2 06:13:44 12° W 06:21:53 72° S 06:27:10 10° E visible
05 Oct 10.8 02:27:42 16° E 02:27:42 16° E 02:29:04 10° E visible
05 Oct 8.9 04:29:07 57° SSW 04:30:35 64° SSE 04:37:30 10° E visible
05 Oct 8.2 06:31:16 10° W 06:39:46 70° S 06:44:57 10° ESE visible
